This demonstration page uses our WeatherBlox Daily Observations layout. Learn more.

36.17497, -115.13722

Hourly Observations for August 18, 2018

Temp ( °F °C ) Dew Point ( °F °C ) Humidity (%) Winds ( mph kmh ) Pressure ( in mb ) Visibility ( mi km ) Precip ( " mm )
12:53 am 00:53 Clear 90 32.2 59 15 35 35 NW 5 7 29.93 1013 10 16.0934 0 0
1:53 am 01:53 Clear 89 31.7 57 13.9 34 34 NNW 3 6 29.93 1014 10 16.0934 0 0
2:53 am 02:53 Clear 88 31.1 57 13.9 35 35 NNW 7 11 29.93 1014 10 16.0934 0 0
3:53 am 03:53 Clear 87 30.6 56 13.3 35 35 N 8 13 29.93 1014 10 16.0934 0 0
4:53 am 04:53 Clear 85 29.4 56 13.3 37 37 N 7 11 29.94 1014 10 16.0934 0 0
5:53 am 05:53 Clear 86 30 57 13.9 37 37 NNE 6 9 29.96 1015 10 16.0934 0 0
6:53 am 06:53 Sunny 87 30.6 62 16.7 43 43 ENE 6 9 29.99 1016 10 16.0934 0 0
7:53 am 07:53 Sunny 89 31.7 62 16.7 41 41 ESE 5 7 30 1016 10 16.0934 0 0
8:53 am 08:53 Sunny 91 32.8 59 15 34 34 Calm 30.01 1016 10 16.0934 0 0
9:53 am 09:53 Sunny 94 34.4 58 14.4 30 30 ESE 5 7 30.01 1016 10 16.0934 0 0
10:53 am 10:53 Sunny 96 35.6 57 13.9 27 27 SSE 6 9 29.99 1016 10 16.0934 0 0
11:53 am 11:53 Sunny 99 37.2 57 13.9 25 25 ESE 8 13 29.97 1015 10 16.0934 0 0
12:53 pm 12:53 Sunny 100 37.8 56 13.3 23 23 SSE 6 9 29.95 1014 10 16.0934 0 0
1:53 pm 13:53 Sunny 102 38.9 53 11.7 19 19 SSE 6 9 29.91 1013 10 16.0934 0 0
2:53 pm 14:53 Sunny 104 40 52 11.1 18 18 Calm 29.88 1012 10 16.0934 0 0
3:53 pm 15:53 Sunny 105 40.6 53 11.7 18 18 SSE 6 9 29.85 1011 10 16.0934 0 0
4:53 pm 16:53 Sunny 105 40.6 52 11.1 17 17 S 9 15 29.83 1010 10 16.0934 0 0
5:53 pm 17:53 Sunny 106 41.1 51 10.6 16 16 SW 10 17 29.8 1009 10 16.0934 0 0
6:53 pm 18:53 Sunny 104 40 49 9.4 16 16 SW 13 20 29.8 1009 10 16.0934 0 0
7:53 pm 19:53 Clear 103 39.4 49 9.4 16 16 WSW 9 15 29.8 1009 10 16.0934 0 0
8:53 pm 20:53 Clear 101 38.3 48 8.9 17 17 SW 9 15 29.82 1010 10 16.0934 0 0
9:53 pm 21:53 Clear 100 37.8 48 8.9 17 17 WSW 10 17 29.82 1010 10 16.0934 0 0
10:53 pm 22:53 Clear 97 36.1 48 8.9 19 19 NNW 3 6 29.83 1010 10 16.0934 0 0
11:53 pm 23:53 Clear 95 35 48 8.9 20 20 NNW 7 11 29.83 1010 10 16.0934 0 0

Powered by AerisWeather